Voltar ao catálogo

CZ-6A DEB

AtivoSSO
NORAD 54506·DEBRIS·🇨🇳 China

Lançado Nov 11, 2022 de Taiyuan Satellite Launch Center

Loading…

Próximas Passagens (próximas 24 horas)

TLE

AtualizadoSource: Space-Track

Época: Sep 14, 2026, 00:48 UTC

1 54506U 22151JJ  26257.03362041  .00001395  00000-0  62318-3 0  9993
2 54506  98.8774 287.8622 0098816 327.6604  31.8540 14.21790941198298

Acompanhe CZ-6A DEB em tempo real com AllMySat

Download on the App Store